When you browse on this site, cookies collect data to enhance your experience and personalize the content and advertising you see.
Visit our Privacy Policy to learn more. By continuing to use the site, you agree to this use of cookies and data.
  • In Hungary
  • List of Countries
  • For 7 days
  • Water Temperature
  • Weather Map
  • News
  • Weather Widgets
  • user-avatar
    Login

    Hourly Weather Dniko

    Today, 18 September, Wednesday

    Time Temperature Precipitation Wind Pressure Humidity
    00:00 +6°C° 0.1 mm 1 mps 734 mmHg 95%
    01:00 +6°C° 0.1 mm 1 mps 734 mmHg 94%
    02:00 +6°C° 0 mm 0 mps 734 mmHg 93%
    03:00 +7°C° 0.8 mm 1 mps 734 mmHg 94%
    04:00 +7°C° 0.8 mm 1 mps 734 mmHg 96%
    05:00 +7°C° 0.8 mm 1 mps 734 mmHg 97%
    06:00 +7°C° 0.6 mm 1 mps 734 mmHg 96%
    07:00 +6°C° 0.6 mm 2 mps 734 mmHg 96%
    08:00 +7°C° 0.6 mm 2 mps 734 mmHg 96%
    09:00 +7°C° 0.2 mm 2 mps 734 mmHg 94%
    10:00 +8°C° 0.2 mm 2 mps 735 mmHg 91%
    11:00 +8°C° 0.2 mm 2 mps 735 mmHg 89%
    12:00 +9°C° 0.1 mm 2 mps 735 mmHg 85%
    13:00 +10°C° 0.1 mm 2 mps 735 mmHg 81%
    14:00 +12°C° 0.1 mm 2 mps 736 mmHg 77%
    15:00 +10°C° 0.4 mm 2 mps 736 mmHg 81%
    16:00 +10°C° 0.4 mm 2 mps 737 mmHg 85%
    17:00 +10°C° 0.4 mm 2 mps 737 mmHg 89%
    18:00 +8°C° 0.1 mm 2 mps 738 mmHg 91%
    19:00 +7°C° 0.1 mm 2 mps 738 mmHg 93%
    20:00 +6°C° 0.1 mm 2 mps 739 mmHg 96%
    21:00 +6°C° 0 mm 2 mps 739 mmHg 96%
    22:00 +6°C° 0 mm 2 mps 740 mmHg 97%
    23:00 +5°C° 0 mm 2 mps 740 mmHg 97%

    Tomorrow, 19 September, Thursday

    Time Temperature Precipitation Wind Pressure Humidity
    00:00 +5°C° 0 mm 2 mps 741 mmHg 98%
    01:00 +5°C° 0 mm 2 mps 741 mmHg 98%
    02:00 +5°C° 0 mm 2 mps 742 mmHg 98%
    03:00 +5°C° 0 mm 2 mps 742 mmHg 98%
    04:00 +5°C° 0 mm 2 mps 743 mmHg 97%
    05:00 +5°C° 0 mm 2 mps 743 mmHg 97%
    06:00 +5°C° 0 mm 2 mps 744 mmHg 94%
    07:00 +5°C° 0 mm 2 mps 744 mmHg 92%
    08:00 +5°C° 0 mm 2 mps 745 mmHg 90%
    09:00 +7°C° 0 mm 2 mps 745 mmHg 83%
    10:00 +8°C° 0 mm 2 mps 745 mmHg 75%
    11:00 +9°C° 0 mm 2 mps 746 mmHg 68%
    12:00 +9°C° 0.1 mm 3 mps 746 mmHg 64%
    13:00 +10°C° 0.1 mm 3 mps 746 mmHg 61%
    14:00 +10°C° 0.1 mm 3 mps 746 mmHg 58%
    15:00 +10°C° 0 mm 2 mps 746 mmHg 63%
    16:00 +10°C° 0 mm 1 mps 746 mmHg 67%
    17:00 +10°C° 0 mm 1 mps 746 mmHg 72%
    18:00 +8°C° 0 mm 1 mps 746 mmHg 76%
    19:00 +6°C° 0 mm 0 mps 746 mmHg 80%
    20:00 +5°C° 0 mm 0 mps 747 mmHg 83%
    21:00 +5°C° 0.5 mm 0 mps 747 mmHg 85%
    22:00 +5°C° 0.5 mm 0 mps 746 mmHg 87%
    23:00 +5°C° 0.5 mm 0 mps 746 mmHg 89%

    Day after tomorrow, 20 September, Friday

    Time Temperature Precipitation Wind Pressure Humidity
    00:00 +5°C° 0.6 mm 0 mps 746 mmHg 91%
    01:00 +5°C° 0.6 mm 0 mps 746 mmHg 93%
    02:00 +5°C° 0.6 mm 1 mps 746 mmHg 95%
    03:00 +5°C° 0 mm 1 mps 746 mmHg 95%
    04:00 +5°C° 0 mm 1 mps 746 mmHg 95%
    05:00 +4°C° 0 mm 1 mps 746 mmHg 95%
    06:00 +5°C° 0 mm 1 mps 746 mmHg 92%
    07:00 +6°C° 0 mm 1 mps 746 mmHg 89%
    08:00 +5°C° 0 mm 2 mps 747 mmHg 86%
    09:00 +6°C° 0.1 mm 2 mps 747 mmHg 84%
    10:00 +7°C° 0.1 mm 2 mps 747 mmHg 81%
    11:00 +8°C° 0.1 mm 3 mps 748 mmHg 79%
    12:00 +8°C° 0.2 mm 3 mps 748 mmHg 79%
    13:00 +8°C° 0.2 mm 3 mps 748 mmHg 79%
    14:00 +7°C° 0.2 mm 4 mps 748 mmHg 78%
    15:00 +6°C° 0.1 mm 4 mps 748 mmHg 80%
    16:00 +7°C° 0.1 mm 3 mps 748 mmHg 81%
    17:00 +5°C° 0.1 mm 3 mps 749 mmHg 82%
    18:00 +5°C° 0 mm 3 mps 749 mmHg 84%
    19:00 +4°C° 0 mm 3 mps 749 mmHg 86%
    20:00 +4°C° 0 mm 3 mps 750 mmHg 87%
    21:00 +3°C° 0 mm 3 mps 750 mmHg 90%
    22:00 +4°C° 0 mm 2 mps 750 mmHg 93%
    23:00 +3°C° 0 mm 2 mps 750 mmHg 96%

    21 September, Saturday

    Time Temperature Precipitation Wind Pressure Humidity
    00:00 +3°C° 0 mm 2 mps 750 mmHg 96%
    01:00 +2°C° 0 mm 2 mps 750 mmHg 96%
    02:00 +2°C° 0 mm 2 mps 750 mmHg 96%
    03:00 +2°C° 0 mm 2 mps 750 mmHg 93%
    04:00 +2°C° 0 mm 2 mps 750 mmHg 91%
    05:00 +2°C° 0 mm 2 mps 750 mmHg 89%
    06:00 +3°C° 0 mm 2 mps 750 mmHg 84%
    07:00 +4°C° 0 mm 2 mps 749 mmHg 80%
    08:00 +4°C° 0 mm 3 mps 749 mmHg 75%
    09:00 +4°C° 0.2 mm 3 mps 749 mmHg 79%
    10:00 +5°C° 0.2 mm 4 mps 748 mmHg 83%
    11:00 +5°C° 0.2 mm 4 mps 747 mmHg 87%
    12:00 +5°C° 0.6 mm 4 mps 747 mmHg 90%
    13:00 +5°C° 0.6 mm 4 mps 746 mmHg 93%
    14:00 +5°C° 0.6 mm 4 mps 745 mmHg 96%
    15:00 +6°C° 0.4 mm 4 mps 745 mmHg 96%
    16:00 +8°C° 0.4 mm 4 mps 744 mmHg 96%
    17:00 +10°C° 0.4 mm 4 mps 744 mmHg 96%
    18:00 +10°C° 0.3 mm 4 mps 743 mmHg 95%
    19:00 +10°C° 0.3 mm 4 mps 743 mmHg 94%
    20:00 +11°C° 0.3 mm 4 mps 743 mmHg 93%
    21:00 +10°C° 0 mm 5 mps 743 mmHg 92%
    22:00 +10°C° 0 mm 5 mps 742 mmHg 92%
    23:00 +10°C° 0 mm 5 mps 742 mmHg 91%

    22 September, Sunday

    Time Temperature Precipitation Wind Pressure Humidity
    00:00 +10°C° 0 mm 6 mps 742 mmHg 90%
    01:00 +10°C° 0 mm 6 mps 741 mmHg 90%
    02:00 +10°C° 0 mm 6 mps 741 mmHg 89%
    03:00 +9°C° 0.1 mm 6 mps 742 mmHg 86%
    04:00 +8°C° 0.1 mm 7 mps 742 mmHg 84%
    05:00 +8°C° 0.1 mm 7 mps 743 mmHg 81%
    06:00 +6°C° 0 mm 7 mps 743 mmHg 76%
    07:00 +5°C° 0 mm 7 mps 744 mmHg 71%
    08:00 +3°C° 0 mm 7 mps 744 mmHg 66%
    09:00 +4°C° 0 mm 7 mps 745 mmHg 63%
    10:00 +5°C° 0 mm 7 mps 746 mmHg 61%
    11:00 +7°C° 0 mm 6 mps 747 mmHg 59%
    12:00 +7°C° 0 mm 6 mps 747 mmHg 56%
    13:00 +8°C° 0 mm 6 mps 748 mmHg 53%
    14:00 +9°C° 0 mm 5 mps 748 mmHg 49%
    15:00 +8°C° 0 mm 4 mps 748 mmHg 54%
    16:00 +8°C° 0 mm 3 mps 749 mmHg 58%
    17:00 +8°C° 0 mm 2 mps 749 mmHg 63%
    18:00 +6°C° 0 mm 2 mps 750 mmHg 68%
    19:00 +5°C° 0 mm 2 mps 750 mmHg 74%
    20:00 +3°C° 0 mm 2 mps 750 mmHg 80%
    21:00 +3°C° 0 mm 2 mps 751 mmHg 82%
    22:00 +3°C° 0 mm 1 mps 751 mmHg 85%
    23:00 +3°C° 0 mm 1 mps 751 mmHg 87%

    23 September, Monday

    Time Temperature Precipitation Wind Pressure Humidity
    00:00 +3°C° 0 mm 1 mps 751 mmHg 87%
    01:00 +2°C° 0 mm 1 mps 751 mmHg 88%
    02:00 +2°C° 0 mm 1 mps 752 mmHg 88%
    03:00 +1°C° 0 mm 0 mps 752 mmHg 87%
    04:00 +1°C° 0 mm 0 mps 752 mmHg 87%
    05:00 +1°C° 0 mm 0 mps 752 mmHg 87%
    06:00 +2°C° 0 mm 0 mps 752 mmHg 81%
    07:00 +3°C° 0 mm 0 mps 752 mmHg 76%
    08:00 +5°C° 0 mm 0 mps 752 mmHg 71%
    09:00 +6°C° 0 mm 0 mps 752 mmHg 64%
    10:00 +8°C° 0 mm 0 mps 751 mmHg 58%
    11:00 +9°C° 0 mm 0 mps 751 mmHg 51%
    12:00 +10°C° 0 mm 0 mps 751 mmHg 50%
    13:00 +10°C° 0 mm 0 mps 751 mmHg 49%
    14:00 +10°C° 0 mm 0 mps 750 mmHg 47%
    15:00 +10°C° 0 mm 1 mps 750 mmHg 52%
    16:00 +9°C° 0 mm 1 mps 750 mmHg 57%
    17:00 +8°C° 0 mm 1 mps 750 mmHg 62%
    18:00 +7°C° 0 mm 1 mps 750 mmHg 66%
    19:00 +6°C° 0 mm 1 mps 750 mmHg 70%
    20:00 +5°C° 0 mm 1 mps 750 mmHg 74%
    21:00 +4°C° 0 mm 1 mps 750 mmHg 77%
    22:00 +3°C° 0 mm 1 mps 750 mmHg 80%
    23:00 +1°C° 0 mm 0 mps 750 mmHg 83%
    Show more